[[{"header":{"parameterUnit":"m.s-1","parameterCategory":1,"la1":30.2992,"la2":30.254,"lo1":-89.0895,"lo2":-89.0443,"dy":0.0025,"dx":0.0025,"nx":19,"ny":19,"refTime":"2026-05-02T09:00:00:Z","depth":0,"parameterNumber":2,"parameterNumberName":"U-component_of_WINDS"},"data":[0,0,0,-3.8272,-3.8277,-3.8501,-3.8501,-3.8808,-3.8811,0,0,0,0,0,0,0,0,0,0,0,-3.8217,-3.822,-3.8272,-3.8278,-3.85,-3.8501,-3.8807,-3.8811,0,0,0,0,0,0,0,0,0,0,0,-3.8216,-3.8219,-3.8222,-3.8278,-3.85,-3.8501,-3.8807,-3.8631,0,0,0,0,0,0,0,0,0,0,-3.8411,-3.8371,-3.8219,-3.8222,-3.828,-3.85,-3.8501,-3.8622,-3.8642,-3.8716,0,-3.8783,0,-3.8802,-3.8833,-3.8834,0,0,0,-3.8269,-3.8355,-3.8404,-3.8223,-3.8282,-3.85,-3.8398,-3.8633,-3.8656,-3.8742,-3.8787,-3.8798,-3.8807,-3.8835,-3.8836,-3.9285,-3.9287,0,0,-3.8257,-3.8264,-3.8389,-3.842,-3.8385,-3.839,-3.8405,-3.8646,-3.8696,-3.8788,-3.8804,-3.8812,-3.8837,-3.8839,-3.9283,-3.9286,0,0,0,-3.8227,-3.8256,-3.8299,-3.8408,-3.8446,-3.8397,-3.8413,-3.8686,-3.8699,-3.8808,-3.8815,-3.8839,-3.8843,-3.928,-3.9284,-3.9416,0,0,0,-3.8219,-3.8238,-3.8294,-3.8301,-3.8442,-3.8568,-3.8448,-3.8682,-3.8709,-3.8814,-3.8839,-3.8846,-3.9277,-3.9282,-3.9406,-3.9478,0,0,0,-3.8199,-3.8236,-3.8272,-3.8301,-3.8397,-3.8564,-3.8591,-3.8688,-3.8715,-3.8834,-3.8847,-3.9275,-3.9281,-3.9398,-3.9464,-3.9601,0,0,0,-3.818,-3.8385,-3.8274,-3.8506,-3.8395,-3.8643,-3.859,-3.8774,-3.8891,-3.8841,-3.9278,-3.9283,-3.9395,-3.9456,-3.9592,-3.9721,-3.9774,0,0,-3.8443,-3.8417,-3.8553,-3.846,-3.873,-3.8608,-3.8897,-3.8998,-3.9003,-3.9191,-3.9202,-3.9409,-3.9463,-3.96,-4.0061,-4.0103,0,0,0,-3.8639,-3.8738,-3.8807,-3.892,-3.9001,-3.9078,-3.9133,-3.9171,-3.933,-3.9101,-3.9493,-3.9525,-3.9605,-3.9666,-3.9702,-3.9772,-3.9311,-3.931,-3.931,-3.9026,-3.902,-3.9246,-3.9268,-3.9377,-3.9432,-3.9521,-3.9581,-3.9543,-3.9636,-3.9693,-3.9974,-4.0046,-4.0073,-4.0145,-3.9757,-3.9757,-3.9758,-3.9758,-3.9415,-3.9556,-3.9499,-3.9698,-3.9691,-3.9859,-3.992,-3.9887,-4.0044,-3.993,-4.0,-3.988,-4.0119,-4.0183,-3.9768,-3.9766,-3.9765,-3.9764,-3.9763,-3.9672,-3.9738,-3.9779,-3.9941,-4.0067,-4.008,-4.0233,-4.022,-4.0209,-4.0278,-4.0339,-4.0337,-4.0337,-4.0307,-4.0308,-4.0309,-4.031,-4.031,-4.0311,-3.9924,-3.9965,-4.0096,-4.0199,-4.027,-4.0361,-4.0417,-4.0487,-4.0562,-4.054,-4.0541,-4.0497,-4.0142,-4.0056,-4.0326,-4.0323,-4.0321,-4.032,-4.0319,-4.0329,-4.0235,-4.0437,-4.0508,-4.0628,-4.0756,-4.0735,-4.0879,-4.0934,-4.1011,-4.095,-4.0688,-4.0661,-4.0633,-4.0562,-4.0947,-4.0947,-4.0947,-4.0948,-4.055,-4.0533,-4.0737,-4.0852,-4.0962,-4.0964,-4.1195,-4.1241,-4.1273,-4.1308,-4.1249,-4.1152,-4.1123,-4.1113,-4.1074,-4.1008,-4.1499,-4.1499,-4.15,-4.08,-4.0794,-4.0993,-4.1022,-4.1115,-4.1196,-4.1414,-4.1549,-4.1566,-4.1522,-4.1336,-4.1312,-4.1155,-4.1104,-4.1061,-4.1001,-4.0879,0,0]},{"header":{"parameterUnit":"m.s-1","parameterCategory":1,"la1":30.2992,"la2":30.254,"lo1":-89.0895,"lo2":-89.0443,"dy":0.0025,"dx":0.0025,"nx":19,"ny":19,"refTime":"2026-05-02T09:00:00:Z","depth":0,"parameterNumber":3,"parameterNumberName":"V-component_of_WINDS"},"data":[0,0,0,-8.0048,-8.0051,-8.0175,-8.0176,-8.0361,-8.0363,0,0,0,0,0,0,0,0,0,0,0,-8.0031,-8.0032,-8.0048,-8.0052,-8.0175,-8.0176,-8.036,-8.0363,0,0,0,0,0,0,0,0,0,0,0,-8.003,-8.0032,-8.0034,-8.0052,-8.0175,-8.0176,-8.036,-8.0256,0,0,0,0,0,0,0,0,0,0,-8.0131,-8.0134,-8.0031,-8.0035,-8.0053,-8.0175,-8.0176,-8.0251,-8.0263,-8.0317,0,-8.0373,0,-8.0371,-8.0377,-8.0378,0,0,0,-8.0036,-8.0125,-8.0141,-8.0035,-8.0054,-8.0175,-8.0115,-8.0257,-8.0271,-8.0333,-8.0375,-8.0381,-8.0374,-8.0378,-8.0379,-8.075,-8.0752,0,0,-8.0029,-8.0063,-8.0132,-8.0151,-8.0137,-8.0111,-8.0119,-8.0265,-8.0312,-8.0376,-8.0385,-8.0377,-8.038,-8.0381,-8.0747,-8.075,0,0,0,-8.002,-8.0059,-8.007,-8.0144,-8.0164,-8.0115,-8.0124,-8.0305,-8.0307,-8.0387,-8.0379,-8.0381,-8.0384,-8.0745,-8.0748,-8.0903,0,0,0,-8.0015,-8.0053,-8.0068,-8.009,-8.0163,-8.0237,-8.0163,-8.0297,-8.0312,-8.0379,-8.0381,-8.0386,-8.0742,-8.0747,-8.0893,-8.097,0,0,0,-8.0016,-8.0052,-8.0078,-8.0091,-8.0146,-8.0234,-8.0243,-8.0299,-8.0309,-8.0378,-8.0386,-8.074,-8.0746,-8.0884,-8.0955,-8.1077,0,0,0,-8.0025,-8.0212,-8.0081,-8.0285,-8.0146,-8.033,-8.0242,-8.0377,-8.0455,-8.0382,-8.0742,-8.0748,-8.0881,-8.0946,-8.1068,-8.1187,-8.124,0,0,-8.0279,-8.0243,-8.0361,-8.0247,-8.0464,-8.0308,-8.0545,-8.0584,-8.0558,-8.0686,-8.0695,-8.0896,-8.0954,-8.1075,-8.1523,-8.1565,0,0,0,-8.0452,-8.0538,-8.0588,-8.0665,-8.0701,-8.0736,-8.0735,-8.0749,-8.0857,-8.0632,-8.0972,-8.1005,-8.1075,-8.113,-8.1166,-8.1224,-8.0775,-8.0774,-8.0774,-8.0859,-8.0818,-8.101,-8.0985,-8.106,-8.1057,-8.1114,-8.1132,-8.1067,-8.1148,-8.1186,-8.1463,-8.1529,-8.1556,-8.1616,-8.1245,-8.1246,-8.1246,-8.1247,-8.1226,-8.134,-8.1251,-8.1406,-8.1361,-8.1488,-8.1492,-8.1442,-8.1553,-8.1431,-8.149,-8.1361,-8.1603,-8.1654,-8.1258,-8.1256,-8.1254,-8.1253,-8.1253,-8.1488,-8.1536,-8.1551,-8.1658,-8.1745,-8.171,-8.1822,-8.1776,-8.1733,-8.1792,-8.1827,-8.1824,-8.1816,-8.1812,-8.1813,-8.1814,-8.1814,-8.1815,-8.1816,-8.1754,-8.1766,-8.1868,-8.1921,-8.1964,-8.2015,-8.2013,-8.2053,-8.2086,-8.2043,-8.2043,-8.1971,-8.1635,-8.1552,-8.183,-8.1828,-8.1826,-8.1825,-8.1824,-8.2143,-8.2048,-8.2204,-8.2248,-8.2306,-8.2395,-8.2334,-8.242,-8.2446,-8.2502,-8.2417,-8.2176,-8.2136,-8.2107,-8.2038,-8.2425,-8.2425,-8.2425,-8.2425,-8.2365,-8.234,-8.2489,-8.2562,-8.2627,-8.2589,-8.2764,-8.2764,-8.2748,-8.2761,-8.2698,-8.2602,-8.2575,-8.2551,-8.2512,-8.2447,-8.293,-8.293,-8.2931,-8.2601,-8.2581,-8.2741,-8.2727,-8.2768,-8.2804,-8.2968,-8.3052,-8.3014,-8.295,-8.2771,-8.2749,-8.2594,-8.2546,-8.2479,-8.242,-8.23,0,0]}]]